Location: ??
(35.1714°N, 128.2806°E)
Time: 14:51:46
(UTC+00:00)

SKYMED 2 - Pass Details

Date: 29 October 2020
Orbit: 621 x 623 km, 97.9° (Epoch: 01 December)

Event Time Altitude Azimuth Distance (km) Brightness Sun altitude
Rises 20:37:01 0° 162° (SSE) 2,889 7.3 -14.7°
Reaches altitude 10° 20:39:12 10° 161° (SSE) 1,987 6.5 -14.2°
Maximum altitude 20:43:31 75° 77° (ENE) 650 3.8 -13.4°
Drops below altitude 10° 20:47:51 10° 352° (N) 2,000 6.0 -12.5°
Sets 20:50:03 0° 350° (N) 2,910 6.8 -12.0°
